Tracking 32139 objects as of 16-Nov-2025
HD Live streaming from Space Station
objects crossing your sky now

STARLINK-35033

Track STARLINK-35033 now!
10-day predictions
STARLINK-35033 is classified as:


NORAD ID: 65468
Int'l Code: 2025-195L
Perigee: 453.6 km
Apogee: 454.9 km
Inclination: 53.2 °
Period: 93.5 minutes
Semi major axis: 6825 km
RCS: Unknown
Launch date: September 3, 2025
Source: United States (US)
Launch site: AIR FORCE EASTERN TEST RANGE (AFETR)
Your satellite tracking list
Your tracking list is empty




NASA's NSSDC Master Catalog

Two Line Element Set (TLE):
1 65468U 25195L   25319.70559087  .00061319  00000-0  15291-2 0  9992
2 65468  53.1611  67.5277 0000956  56.1857 303.9239 15.39650504 12543
Source of the keplerian elements: AFSPC